Climatologie pour Saint-Brevin les Pins
Jour • Résumé pour juillet 17, 2017 Système :  Métrique    Anglais   Mixte
« - 1 jour
+ 1 jour »
Jour Semaine Mois Année Personnalisé
  Maximum : Minimum : Moyenne :
Température sous abri : 33.2 °C 16.7 °C 25 °C
Point de rosée : 19.5 °C 15.6 °C 17.2 °C
Humidité : 94 % 38 % 66 %
Vitesse du vent : 22.5 km/h 0.0 km/h 8.8 km/h
Rafale : 32.2 km/h - -
Direction :- - ENE
Pression : 1022.2 hPa 1013.4 hPa -
Précipitations : 0.0 mm    
Historical Graphs
 
 
Tableau de données pour juillet 17, 2017
Heure Tempé Pt rosée Pression Vent Vitesse Rafale Humidité Taux pluie (/hr) Soleil
00:00 20.8 °C 16.4 °C 1022.2 hPa NE 4.8 km/h 22.5 km/h 76 % 0.0 mm 0 W/m2
00:10 20.6 °C 16.4 °C 1022.2 hPa NE 8.0 km/h 17.7 km/h 77 % 0.0 mm 0 W/m2
00:15 20.4 °C 16.4 °C 1022.2 hPa North 11.3 km/h 20.9 km/h 78 % 0.0 mm 0 W/m2
00:20 20.3 °C 16.4 °C 1022.2 hPa NNE 19.3 km/h 20.9 km/h 78 % 0.0 mm 0 W/m2
00:25 20.2 °C 16.3 °C 1022.2 hPa North 8.0 km/h 20.9 km/h 78 % 0.0 mm 0 W/m2
00:30 20.2 °C 16.2 °C 1022.2 hPa NE 9.7 km/h 20.9 km/h 78 % 0.0 mm 0 W/m2
00:35 20.1 °C 16.3 °C 1022.2 hPa North 6.4 km/h 19.3 km/h 79 % 0.0 mm 0 W/m2
00:40 19.9 °C 16.2 °C 1022.2 hPa East 12.9 km/h 19.3 km/h 79 % 0.0 mm 0 W/m2
00:50 19.8 °C 16.3 °C 1022.2 hPa ENE 1.6 km/h 20.9 km/h 80 % 0.0 mm 0 W/m2
00:55 19.7 °C 16.2 °C 1022.2 hPa SSE 8.0 km/h 25.7 km/h 80 % 0.0 mm 0 W/m2
01:00 19.6 °C 16.3 °C 1022.2 hPa NNE 8.0 km/h 25.7 km/h 81 % 0.0 mm 0 W/m2
01:10 19.4 °C 16.0 °C 1021.9 hPa NNE 1.6 km/h 22.5 km/h 81 % 0.0 mm 0 W/m2
01:15 19.2 °C 16.1 °C 1021.9 hPa NNE 3.2 km/h 16.1 km/h 82 % 0.0 mm 0 W/m2
01:20 19.1 °C 16.0 °C 1021.9 hPa ENE 9.7 km/h 19.3 km/h 82 % 0.0 mm 0 W/m2
01:25 19.1 °C 16.1 °C 1021.9 hPa ENE 6.4 km/h 20.9 km/h 83 % 0.0 mm 0 W/m2
01:30 19.0 °C 16.0 °C 1021.9 hPa ENE 3.2 km/h 20.9 km/h 83 % 0.0 mm 0 W/m2
01:35 18.9 °C 16.1 °C 1021.9 hPa North 4.8 km/h 17.7 km/h 84 % 0.0 mm 0 W/m2
01:40 18.8 °C 16.0 °C 1021.9 hPa ENE 4.8 km/h 17.7 km/h 84 % 0.0 mm 0 W/m2
01:45 18.7 °C 16.0 °C 1021.9 hPa ENE 12.9 km/h 16.1 km/h 84 % 0.0 mm 0 W/m2
01:50 18.6 °C 15.9 °C 1021.9 hPa NE 4.8 km/h 20.9 km/h 84 % 0.0 mm 0 W/m2
01:55 18.6 °C 16.0 °C 1021.6 hPa NE 6.4 km/h 20.9 km/h 85 % 0.0 mm 0 W/m2
02:00 18.4 °C 15.9 °C 1021.6 hPa ENE 12.9 km/h 19.3 km/h 85 % 0.0 mm 0 W/m2
02:05 18.4 °C 15.9 °C 1021.6 hPa North 11.3 km/h 20.9 km/h 85 % 0.0 mm 0 W/m2
02:10 18.3 °C 15.9 °C 1021.6 hPa NNE 11.3 km/h 22.5 km/h 86 % 0.0 mm 0 W/m2
02:15 18.3 °C 15.9 °C 1021.6 hPa East 8.0 km/h 22.5 km/h 86 % 0.0 mm 0 W/m2
02:20 18.2 °C 15.8 °C 1021.6 hPa NE 9.7 km/h 24.1 km/h 86 % 0.0 mm 0 W/m2
02:25 18.2 °C 15.8 °C 1021.6 hPa ENE 16.1 km/h 24.1 km/h 86 % 0.0 mm 0 W/m2
02:30 18.1 °C 15.7 °C 1021.6 hPa NNE 4.8 km/h 22.5 km/h 86 % 0.0 mm 0 W/m2
02:35 18.1 °C 15.9 °C 1021.6 hPa NE 8.0 km/h 19.3 km/h 87 % 0.0 mm 0 W/m2
02:40 18.1 °C 15.9 °C 1021.2 hPa NE 12.9 km/h 20.9 km/h 87 % 0.0 mm 0 W/m2
02:45 18.0 °C 15.8 °C 1021.2 hPa ENE 8.0 km/h 20.9 km/h 87 % 0.0 mm 0 W/m2
02:50 17.9 °C 15.7 °C 1021.2 hPa NNE 3.2 km/h 20.9 km/h 87 % 0.0 mm 0 W/m2
02:55 17.9 °C 15.7 °C 1021.2 hPa NNE 11.3 km/h 20.9 km/h 87 % 0.0 mm 0 W/m2
03:00 17.9 °C 15.9 °C 1021.2 hPa North 6.4 km/h 20.9 km/h 88 % 0.0 mm 0 W/m2
03:05 17.9 °C 15.7 °C 1021.2 hPa North 4.8 km/h 17.7 km/h 87 % 0.0 mm 0 W/m2
03:10 17.8 °C 15.8 °C 1021.2 hPa NNE 6.4 km/h 17.7 km/h 88 % 0.0 mm 0 W/m2
03:15 17.8 °C 15.8 °C 1021.2 hPa ENE 3.2 km/h 17.7 km/h 88 % 0.0 mm 0 W/m2
03:20 17.8 °C 15.8 °C 1021.2 hPa NE 6.4 km/h 17.7 km/h 88 % 0.0 mm 0 W/m2
03:25 17.8 °C 15.8 °C 1021.2 hPa NE 9.7 km/h 20.9 km/h 88 % 0.0 mm 0 W/m2
03:30 17.8 °C 15.8 °C 1020.9 hPa ENE 1.6 km/h 20.9 km/h 88 % 0.0 mm 0 W/m2
03:35 17.7 °C 15.7 °C 1021.2 hPa NE 1.6 km/h 16.1 km/h 88 % 0.0 mm 0 W/m2
03:40 17.7 °C 15.8 °C 1020.9 hPa East 3.2 km/h 16.1 km/h 89 % 0.0 mm 0 W/m2
03:45 17.6 °C 15.8 °C 1020.9 hPa East 14.5 km/h 16.1 km/h 89 % 0.0 mm 0 W/m2
03:50 17.5 °C 15.7 °C 1020.9 hPa North 4.8 km/h 14.5 km/h 89 % 0.0 mm 0 W/m2
03:55 17.4 °C 15.6 °C 1020.9 hPa ENE 8.0 km/h 14.5 km/h 89 % 0.0 mm 0 W/m2
04:00 17.4 °C 15.8 °C 1020.9 hPa NE 11.3 km/h 14.5 km/h 90 % 0.0 mm 0 W/m2
04:05 17.4 °C 15.7 °C 1020.9 hPa NE 9.7 km/h 22.5 km/h 90 % 0.0 mm 0 W/m2
04:10 17.4 °C 15.7 °C 1020.9 hPa NNE 9.7 km/h 22.5 km/h 90 % 0.0 mm 0 W/m2
04:15 17.4 °C 15.7 °C 1020.9 hPa ENE 3.2 km/h 19.3 km/h 90 % 0.0 mm 0 W/m2
04:20 17.4 °C 15.7 °C 1020.9 hPa NE 3.2 km/h 16.1 km/h 90 % 0.0 mm 0 W/m2
04:25 17.3 °C 15.8 °C 1020.9 hPa NE 9.7 km/h 16.1 km/h 91 % 0.0 mm 0 W/m2
04:30 17.3 °C 15.8 °C 1020.9 hPa NE 3.2 km/h 12.9 km/h 91 % 0.0 mm 0 W/m2
04:35 17.2 °C 15.7 °C 1020.9 hPa East 8.0 km/h 12.9 km/h 91 % 0.0 mm 0 W/m2
04:40 17.2 °C 15.7 °C 1020.9 hPa NE 4.8 km/h 12.9 km/h 91 % 0.0 mm 0 W/m2
04:45 17.2 °C 15.7 °C 1020.9 hPa NE 11.3 km/h 14.5 km/h 91 % 0.0 mm 0 W/m2
04:50 17.2 °C 15.9 °C 1020.9 hPa NE 4.8 km/h 14.5 km/h 92 % 0.0 mm 0 W/m2
04:55 17.2 °C 15.9 °C 1020.9 hPa NE 8.0 km/h 17.7 km/h 92 % 0.0 mm 0 W/m2
05:00 17.1 °C 15.8 °C 1020.9 hPa NNE 6.4 km/h 17.7 km/h 92 % 0.0 mm 0 W/m2
05:10 17.1 °C 15.7 °C 1020.5 hPa NE 3.2 km/h 14.5 km/h 92 % 0.0 mm 0 W/m2
05:15 17.0 °C 15.7 °C 1020.5 hPa ENE 4.8 km/h 14.5 km/h 92 % 0.0 mm 0 W/m2
05:20 17.0 °C 15.7 °C 1020.5 hPa Calm   17.7 km/h 92 % 0.0 mm 0 W/m2
05:25 16.9 °C 15.6 °C 1020.5 hPa East 9.7 km/h 17.7 km/h 92 % 0.0 mm 0 W/m2
05:30 16.9 °C 15.6 °C 1020.5 hPa NE 6.4 km/h 14.5 km/h 92 % 0.0 mm 0 W/m2
05:35 16.9 °C 15.7 °C 1020.5 hPa ENE 6.4 km/h 14.5 km/h 93 % 0.0 mm 0 W/m2
05:40 16.9 °C 15.7 °C 1020.5 hPa Calm   14.5 km/h 93 % 0.0 mm 0 W/m2
05:45 16.8 °C 15.7 °C 1020.5 hPa NE 4.8 km/h 16.1 km/h 93 % 0.0 mm 0 W/m2
05:50 16.8 °C 15.7 °C 1020.5 hPa ENE 3.2 km/h 16.1 km/h 93 % 0.0 mm 0 W/m2
05:55 16.8 °C 15.7 °C 1020.5 hPa Calm   14.5 km/h 93 % 0.0 mm 0 W/m2
06:00 16.8 °C 15.7 °C 1020.5 hPa North 8.0 km/h 16.1 km/h 93 % 0.0 mm 0 W/m2
06:05 16.8 °C 15.6 °C 1020.5 hPa NNE 8.0 km/h 16.1 km/h 93 % 0.0 mm 0 W/m2
06:10 16.7 °C 15.6 °C 1020.5 hPa NE 3.2 km/h 12.9 km/h 93 % 0.0 mm 0 W/m2
06:15 16.7 °C 15.6 °C 1020.5 hPa ENE 1.6 km/h 12.9 km/h 93 % 0.0 mm 0 W/m2
06:20 16.7 °C 15.6 °C 1020.5 hPa NE 4.8 km/h 12.9 km/h 93 % 0.0 mm 0 W/m2
06:25 16.7 °C 15.8 °C 1020.5 hPa ENE 14.5 km/h 16.1 km/h 94 % 0.0 mm 0 W/m2
06:30 16.7 °C 15.8 °C 1020.5 hPa ENE 6.4 km/h 17.7 km/h 94 % 0.0 mm 0 W/m2
06:35 16.7 °C 15.8 °C 1020.5 hPa NE 11.3 km/h 17.7 km/h 94 % 0.0 mm 5 W/m2
06:40 16.7 °C 15.8 °C 1020.5 hPa Calm   14.5 km/h 94 % 0.0 mm 7 W/m2
06:45 16.8 °C 15.8 °C 1020.5 hPa NE 3.2 km/h 16.1 km/h 94 % 0.0 mm 9 W/m2
06:50 16.8 °C 15.8 °C 1020.5 hPa NE 4.8 km/h 16.1 km/h 94 % 0.0 mm 11 W/m2
06:55 16.8 °C 15.8 °C 1020.5 hPa ENE 8.0 km/h 16.1 km/h 94 % 0.0 mm 12 W/m2
07:00 16.8 °C 15.9 °C 1020.5 hPa North 6.4 km/h 16.1 km/h 94 % 0.0 mm 14 W/m2
07:05 16.9 °C 15.9 °C 1020.5 hPa NE 1.6 km/h 16.1 km/h 94 % 0.0 mm 14 W/m2
07:10 16.9 °C 15.9 °C 1020.5 hPa NE 4.8 km/h 17.7 km/h 94 % 0.0 mm 16 W/m2
07:15 16.9 °C 16.0 °C 1020.5 hPa ENE 1.6 km/h 17.7 km/h 94 % 0.0 mm 21 W/m2
07:20 17.0 °C 16.0 °C 1020.5 hPa NNE 6.4 km/h 17.7 km/h 94 % 0.0 mm 21 W/m2
07:25 17.0 °C 16.0 °C 1020.5 hPa ENE 4.8 km/h 17.7 km/h 94 % 0.0 mm 23 W/m2
07:30 17.1 °C 16.1 °C 1020.5 hPa East 11.3 km/h 16.1 km/h 94 % 0.0 mm 26 W/m2
07:35 17.1 °C 16.1 °C 1020.5 hPa NE 3.2 km/h 16.1 km/h 94 % 0.0 mm 28 W/m2
07:40 17.1 °C 16.1 °C 1020.5 hPa NNE 8.0 km/h 16.1 km/h 94 % 0.0 mm 37 W/m2
07:45 17.2 °C 16.1 °C 1020.5 hPa North 3.2 km/h 14.5 km/h 93 % 0.0 mm 40 W/m2
07:50 17.3 °C 16.2 °C 1020.5 hPa East 16.1 km/h 17.7 km/h 93 % 0.0 mm 40 W/m2
07:55 17.4 °C 16.3 °C 1020.2 hPa NE 6.4 km/h 17.7 km/h 93 % 0.0 mm 46 W/m2
08:00 17.6 °C 16.4 °C 1020.2 hPa ENE 16.1 km/h 17.7 km/h 93 % 0.0 mm 51 W/m2
08:05 17.7 °C 16.4 °C 1020.2 hPa NE 6.4 km/h 17.7 km/h 92 % 0.0 mm 46 W/m2
08:10 17.7 °C 16.4 °C 1020.2 hPa NE 14.5 km/h 22.5 km/h 92 % 0.0 mm 195 W/m2
08:15 17.8 °C 16.5 °C 1020.5 hPa NE 14.5 km/h 22.5 km/h 92 % 0.0 mm 206 W/m2
08:20 17.9 °C 16.5 °C 1020.5 hPa ESE 6.4 km/h 27.4 km/h 91 % 0.0 mm 188 W/m2
08:25 18.2 °C 16.5 °C 1020.5 hPa ENE 6.4 km/h 27.4 km/h 90 % 0.0 mm 213 W/m2
08:30 18.3 °C 16.7 °C 1020.2 hPa ENE 12.9 km/h 22.5 km/h 90 % 0.0 mm 195 W/m2
08:35 18.3 °C 16.5 °C 1020.5 hPa NNE 3.2 km/h 25.7 km/h 89 % 0.0 mm 229 W/m2
08:40 18.4 °C 16.6 °C 1020.5 hPa ENE 11.3 km/h 25.7 km/h 89 % 0.0 mm 272 W/m2
08:45 18.6 °C 16.6 °C 1020.5 hPa East 20.9 km/h 24.1 km/h 88 % 0.0 mm 285 W/m2
08:50 18.8 °C 16.8 °C 1020.5 hPa ESE 11.3 km/h 24.1 km/h 88 % 0.0 mm 299 W/m2
08:55 19.1 °C 16.9 °C 1020.2 hPa NNE 4.8 km/h 22.5 km/h 87 % 0.0 mm 294 W/m2
09:00 19.3 °C 16.9 °C 1020.2 hPa ENE 12.9 km/h 19.3 km/h 86 % 0.0 mm 330 W/m2
09:05 19.5 °C 16.9 °C 1020.2 hPa NE 12.9 km/h 19.3 km/h 85 % 0.0 mm 345 W/m2
09:10 19.6 °C 17.0 °C 1020.2 hPa ENE 16.1 km/h 29.0 km/h 85 % 0.0 mm 360 W/m2
09:15 19.8 °C 17.0 °C 1020.2 hPa East 11.3 km/h 29.0 km/h 84 % 0.0 mm 374 W/m2
09:20 20.0 °C 17.2 °C 1020.2 hPa ENE 16.1 km/h 22.5 km/h 84 % 0.0 mm 390 W/m2
09:25 20.3 °C 17.3 °C 1020.2 hPa NE 9.7 km/h 22.5 km/h 83 % 0.0 mm 399 W/m2
09:30 20.5 °C 17.3 °C 1019.9 hPa ENE 6.4 km/h 22.5 km/h 82 % 0.0 mm 415 W/m2
09:35 20.8 °C 17.4 °C 1019.9 hPa ENE 4.8 km/h 20.9 km/h 81 % 0.0 mm 432 W/m2
09:40 20.9 °C 17.6 °C 1019.9 hPa ENE 8.0 km/h 20.9 km/h 81 % 0.0 mm 445 W/m2
09:45 21.3 °C 17.7 °C 1019.9 hPa NE 6.4 km/h 20.9 km/h 80 % 0.0 mm 459 W/m2
09:50 21.5 °C 17.5 °C 1019.9 hPa ENE 17.7 km/h 24.1 km/h 78 % 0.0 mm 473 W/m2
09:55 21.6 °C 17.6 °C 1019.9 hPa ENE 6.4 km/h 24.1 km/h 78 % 0.0 mm 489 W/m2
10:00 21.8 °C 17.6 °C 1019.9 hPa ENE 6.4 km/h 24.1 km/h 77 % 0.0 mm 499 W/m2
10:05 22.4 °C 18.2 °C 1019.9 hPa ENE 11.3 km/h 24.1 km/h 77 % 0.0 mm 513 W/m2
10:10 23.0 °C 18.1 °C 1019.9 hPa ENE 4.8 km/h 17.7 km/h 74 % 0.0 mm 526 W/m2
10:15 23.1 °C 18.0 °C 1019.5 hPa ENE 8.0 km/h 22.5 km/h 73 % 0.0 mm 541 W/m2
10:20 23.3 °C 18.0 °C 1019.5 hPa ENE 14.5 km/h 22.5 km/h 72 % 0.0 mm 554 W/m2
10:25 23.4 °C 18.1 °C 1019.5 hPa East 14.5 km/h 20.9 km/h 72 % 0.0 mm 568 W/m2
10:30 23.8 °C 18.4 °C 1019.5 hPa East 11.3 km/h 20.9 km/h 72 % 0.0 mm 582 W/m2
10:35 24.1 °C 18.2 °C 1019.5 hPa ENE 12.9 km/h 20.9 km/h 70 % 0.0 mm 591 W/m2
10:40 24.4 °C 18.6 °C 1019.5 hPa NNE 11.3 km/h 20.9 km/h 70 % 0.0 mm 605 W/m2
10:45 24.4 °C 18.4 °C 1019.2 hPa NE 16.1 km/h 19.3 km/h 69 % 0.0 mm 617 W/m2
10:50 24.7 °C 18.6 °C 1019.2 hPa NNE 11.3 km/h 19.3 km/h 69 % 0.0 mm 629 W/m2
10:55 24.9 °C 18.6 °C 1019.2 hPa NE 16.1 km/h 20.9 km/h 68 % 0.0 mm 642 W/m2
11:00 25.1 °C 18.5 °C 1019.2 hPa East 6.4 km/h 20.9 km/h 67 % 0.0 mm 652 W/m2
11:05 25.3 °C 18.5 °C 1019.2 hPa East 12.9 km/h 20.9 km/h 66 % 0.0 mm 663 W/m2
11:10 25.3 °C 18.5 °C 1019.2 hPa NNE 16.1 km/h 20.9 km/h 66 % 0.0 mm 679 W/m2
11:15 25.6 °C 18.5 °C 1019.2 hPa North 6.4 km/h 22.5 km/h 65 % 0.0 mm 621 W/m2
11:20 25.7 °C 18.6 °C 1019.2 hPa East 17.7 km/h 22.5 km/h 65 % 0.0 mm 710 W/m2
11:25 26.0 °C 18.7 °C 1019.2 hPa ENE 8.0 km/h 22.5 km/h 64 % 0.0 mm 715 W/m2
11:30 26.1 °C 18.7 °C 1019.2 hPa North 9.7 km/h 24.1 km/h 64 % 0.0 mm 722 W/m2
11:35 26.0 °C 18.9 °C 1019.2 hPa NE 8.0 km/h 24.1 km/h 65 % 0.0 mm 735 W/m2
11:40 26.4 °C 18.8 °C 1018.8 hPa NE 4.8 km/h 22.5 km/h 63 % 0.0 mm 740 W/m2
11:45 26.6 °C 18.4 °C 1018.8 hPa East 17.7 km/h 22.5 km/h 61 % 0.0 mm 751 W/m2
11:55 27.1 °C 18.9 °C 1018.8 hPa NNE 22.5 km/h 22.5 km/h 61 % 0.0 mm 772 W/m2
12:00 27.1 °C 18.7 °C 1018.8 hPa ENE 12.9 km/h 22.5 km/h 60 % 0.0 mm 782 W/m2
12:05 27.4 °C 19.0 °C 1018.5 hPa ENE 12.9 km/h 25.7 km/h 60 % 0.0 mm 798 W/m2
12:10 27.7 °C 18.9 °C 1018.5 hPa NNE 11.3 km/h 25.7 km/h 59 % 0.0 mm 789 W/m2
12:15 27.6 °C 18.9 °C 1018.5 hPa ENE 6.4 km/h 24.1 km/h 59 % 0.0 mm 779 W/m2
12:20 28.3 °C 19.0 °C 1018.5 hPa NNE 16.1 km/h 24.1 km/h 57 % 0.0 mm 795 W/m2
12:25 28.1 °C 19.0 °C 1018.5 hPa East 16.1 km/h 20.9 km/h 58 % 0.0 mm 557 W/m2
12:30 28.1 °C 18.7 °C 1018.5 hPa NE 8.0 km/h 20.9 km/h 57 % 0.0 mm 807 W/m2
12:35 28.5 °C 19.2 °C 1018.5 hPa ENE 6.4 km/h 22.5 km/h 57 % 0.0 mm 826 W/m2
12:40 29.2 °C 19.5 °C 1018.5 hPa NNE 3.2 km/h 22.5 km/h 56 % 0.0 mm 833 W/m2
12:45 29.1 °C 18.6 °C 1018.5 hPa ENE 16.1 km/h 20.9 km/h 53 % 0.0 mm 823 W/m2
12:50 29.2 °C 19.2 °C 1018.5 hPa ENE 11.3 km/h 20.9 km/h 55 % 0.0 mm 824 W/m2
12:55 29.2 °C 18.6 °C 1018.2 hPa ENE 8.0 km/h 17.7 km/h 53 % 0.0 mm 833 W/m2
13:00 29.4 °C 18.8 °C 1018.2 hPa East 3.2 km/h 19.3 km/h 53 % 0.0 mm 816 W/m2
13:05 29.4 °C 18.8 °C 1018.2 hPa ENE 6.4 km/h 19.3 km/h 53 % 0.0 mm 856 W/m2
13:10 29.2 °C 18.7 °C 1018.2 hPa East 11.3 km/h 24.1 km/h 53 % 0.0 mm 861 W/m2
13:15 30.0 °C 19.4 °C 1018.2 hPa NNE 9.7 km/h 24.1 km/h 53 % 0.0 mm 863 W/m2
13:20 30.0 °C 18.8 °C 1018.2 hPa NE 6.4 km/h 19.3 km/h 51 % 0.0 mm 865 W/m2
13:25 29.9 °C 19.0 °C 1018.2 hPa East 12.9 km/h 20.9 km/h 52 % 0.0 mm 844 W/m2
13:30 30.1 °C 18.5 °C 1018.2 hPa ESE 12.9 km/h 22.5 km/h 50 % 0.0 mm 847 W/m2
13:35 29.9 °C 18.7 °C 1017.8 hPa ENE 16.1 km/h 22.5 km/h 51 % 0.0 mm 842 W/m2
13:40 30.1 °C 18.8 °C 1017.8 hPa ENE 9.7 km/h 22.5 km/h 51 % 0.0 mm 884 W/m2
13:45 30.8 °C 19.2 °C 1017.8 hPa East 14.5 km/h 24.1 km/h 50 % 0.0 mm 877 W/m2
13:50 30.3 °C 18.7 °C 1017.8 hPa NE 9.7 km/h 24.1 km/h 50 % 0.0 mm 875 W/m2
13:55 30.8 °C 19.2 °C 1017.5 hPa ENE 14.5 km/h 22.5 km/h 50 % 0.0 mm 805 W/m2
14:00 30.6 °C 18.7 °C 1017.5 hPa ENE 6.4 km/h 24.1 km/h 49 % 0.0 mm 881 W/m2
14:05 31.4 °C 19.1 °C 1017.5 hPa NE 9.7 km/h 24.1 km/h 48 % 0.0 mm 863 W/m2
14:10 31.3 °C 19.0 °C 1017.5 hPa ENE 16.1 km/h 20.9 km/h 48 % 0.0 mm 893 W/m2
14:15 31.1 °C 18.8 °C 1017.5 hPa NE 11.3 km/h 19.3 km/h 48 % 0.0 mm 877 W/m2
14:20 31.0 °C 19.0 °C 1017.2 hPa ESE 4.8 km/h 19.3 km/h 49 % 0.0 mm 867 W/m2
14:30 32.1 °C 19.0 °C 1017.2 hPa ENE 14.5 km/h 24.1 km/h 46 % 0.0 mm 872 W/m2
14:35 31.4 °C 18.1 °C 1017.2 hPa ESE 8.0 km/h 24.1 km/h 45 % 0.0 mm 844 W/m2
14:40 32.0 °C 18.6 °C 1017.2 hPa East 6.4 km/h 22.5 km/h 45 % 0.0 mm 863 W/m2
14:45 32.1 °C 18.3 °C 1016.8 hPa ENE 3.2 km/h 22.5 km/h 44 % 0.0 mm 868 W/m2
14:50 32.2 °C 18.0 °C 1016.8 hPa East 11.3 km/h 17.7 km/h 43 % 0.0 mm 870 W/m2
14:55 32.7 °C 18.5 °C 1016.8 hPa NE 12.9 km/h 25.7 km/h 43 % 0.0 mm 868 W/m2
15:00 32.4 °C 17.8 °C 1016.8 hPa NNE 3.2 km/h 25.7 km/h 42 % 0.0 mm 874 W/m2
15:05 32.6 °C 17.6 °C 1016.8 hPa ENE 17.7 km/h 25.7 km/h 41 % 0.0 mm 861 W/m2
15:10 32.4 °C 17.8 °C 1016.8 hPa East 11.3 km/h 25.7 km/h 42 % 0.0 mm 849 W/m2
15:15 32.9 °C 18.3 °C 1016.5 hPa NE 14.5 km/h 22.5 km/h 42 % 0.0 mm 863 W/m2
15:20 32.4 °C 17.9 °C 1016.8 hPa ENE 14.5 km/h 27.4 km/h 42 % 0.0 mm 853 W/m2
15:25 32.4 °C 17.9 °C 1016.5 hPa East 9.7 km/h 27.4 km/h 42 % 0.0 mm 844 W/m2
15:30 32.2 °C 18.0 °C 1016.5 hPa ENE 4.8 km/h 25.7 km/h 43 % 0.0 mm 840 W/m2
15:35 32.2 °C 17.7 °C 1016.5 hPa SE 3.2 km/h 24.1 km/h 42 % 0.0 mm 837 W/m2
15:40 32.9 °C 17.9 °C 1016.5 hPa NE 3.2 km/h 22.5 km/h 41 % 0.0 mm 824 W/m2
15:45 32.8 °C 18.2 °C 1016.5 hPa ENE 6.4 km/h 22.5 km/h 42 % 0.0 mm 768 W/m2
15:50 32.9 °C 17.9 °C 1016.1 hPa ENE 9.7 km/h 22.5 km/h 41 % 0.0 mm 675 W/m2
15:55 32.2 °C 18.0 °C 1016.5 hPa East 22.5 km/h 30.6 km/h 43 % 0.0 mm 703 W/m2
16:00 31.9 °C 18.5 °C 1016.1 hPa ENE 8.0 km/h 30.6 km/h 45 % 0.0 mm 721 W/m2
16:05 32.3 °C 18.2 °C 1016.1 hPa ESE 8.0 km/h 27.4 km/h 43 % 0.0 mm 722 W/m2
16:10 32.7 °C 18.5 °C 1016.1 hPa ENE 6.4 km/h 27.4 km/h 43 % 0.0 mm 763 W/m2
16:15 33.2 °C 18.5 °C 1016.1 hPa ESE 11.3 km/h 20.9 km/h 42 % 0.0 mm 761 W/m2
16:20 33.2 °C 18.5 °C 1016.1 hPa ENE 6.4 km/h 20.9 km/h 42 % 0.0 mm 682 W/m2
16:25 32.7 °C 18.1 °C 1015.8 hPa ENE 20.9 km/h 24.1 km/h 42 % 0.0 mm 624 W/m2
16:30 32.1 °C 18.0 °C 1015.8 hPa NE 11.3 km/h 24.1 km/h 43 % 0.0 mm 677 W/m2
16:35 32.4 °C 18.2 °C 1015.8 hPa NE 4.8 km/h 24.1 km/h 43 % 0.0 mm 673 W/m2
16:40 32.7 °C 17.7 °C 1015.8 hPa ENE 12.9 km/h 32.2 km/h 41 % 0.0 mm 647 W/m2
16:45 32.0 °C 17.9 °C 1015.8 hPa NNE 11.3 km/h 32.2 km/h 43 % 0.0 mm 633 W/m2
16:50 32.3 °C 17.4 °C 1015.8 hPa ENE 8.0 km/h 25.7 km/h 41 % 0.0 mm 635 W/m2
16:55 32.6 °C 17.6 °C 1015.5 hPa East 9.7 km/h 22.5 km/h 41 % 0.0 mm 640 W/m2
17:00 32.9 °C 17.9 °C 1015.5 hPa ENE 4.8 km/h 25.7 km/h 41 % 0.0 mm 596 W/m2
17:05 33.0 °C 17.2 °C 1015.5 hPa ENE 14.5 km/h 25.7 km/h 39 % 0.0 mm 624 W/m2
17:10 33.1 °C 16.8 °C 1015.5 hPa ESE 6.4 km/h 25.7 km/h 38 % 0.0 mm 645 W/m2
17:15 33.1 °C 16.9 °C 1015.5 hPa ENE 6.4 km/h 25.7 km/h 38 % 0.0 mm 585 W/m2
17:20 32.9 °C 16.7 °C 1015.5 hPa SSE 4.8 km/h 24.1 km/h 38 % 0.0 mm 642 W/m2
17:25 33.1 °C 16.8 °C 1015.1 hPa NNE 1.6 km/h 24.1 km/h 38 % 0.0 mm 647 W/m2
17:30 33.2 °C 16.9 °C 1015.1 hPa East 12.9 km/h 25.7 km/h 38 % 0.0 mm 659 W/m2
17:35 33.0 °C 17.2 °C 1015.1 hPa ESE 17.7 km/h 25.7 km/h 39 % 0.0 mm 642 W/m2
17:40 32.8 °C 17.0 °C 1015.1 hPa East 3.2 km/h 27.4 km/h 39 % 0.0 mm 371 W/m2
17:45 32.4 °C 16.7 °C 1015.1 hPa NE 14.5 km/h 27.4 km/h 39 % 0.0 mm 443 W/m2
17:50 32.4 °C 16.7 °C 1015.1 hPa North 4.8 km/h 24.1 km/h 39 % 0.0 mm 552 W/m2
17:55 32.8 °C 17.0 °C 1015.1 hPa NE 17.7 km/h 24.1 km/h 39 % 0.0 mm 592 W/m2
18:00 32.6 °C 16.8 °C 1014.8 hPa ENE 11.3 km/h 20.9 km/h 39 % 0.0 mm 582 W/m2
18:05 32.8 °C 17.5 °C 1014.8 hPa East 19.3 km/h 20.9 km/h 40 % 0.0 mm 482 W/m2
18:10 32.6 °C 16.9 °C 1014.8 hPa ENE 12.9 km/h 22.5 km/h 39 % 0.0 mm 432 W/m2
18:15 32.3 °C 16.6 °C 1014.8 hPa ESE 12.9 km/h 22.5 km/h 39 % 0.0 mm 473 W/m2
18:20 32.6 °C 17.2 °C 1014.8 hPa ESE 12.9 km/h 24.1 km/h 40 % 0.0 mm 529 W/m2
18:25 32.7 °C 16.9 °C 1014.4 hPa ENE 8.0 km/h 24.1 km/h 39 % 0.0 mm 497 W/m2
18:30 32.8 °C 17.0 °C 1014.4 hPa NE 8.0 km/h 24.1 km/h 39 % 0.0 mm 410 W/m2
18:35 32.6 °C 16.9 °C 1014.4 hPa East 22.5 km/h 24.1 km/h 39 % 0.0 mm 360 W/m2
18:40 32.7 °C 17.0 °C 1014.4 hPa SSE 9.7 km/h 22.5 km/h 39 % 0.0 mm 438 W/m2
18:45 32.4 °C 16.7 °C 1014.4 hPa ESE 12.9 km/h 22.5 km/h 39 % 0.0 mm 264 W/m2
18:50 32.2 °C 16.5 °C 1014.4 hPa East 3.2 km/h 22.5 km/h 39 % 0.0 mm 332 W/m2
18:55 32.4 °C 16.7 °C 1014.1 hPa East 9.7 km/h 22.5 km/h 39 % 0.0 mm 401 W/m2
19:00 32.5 °C 16.8 °C 1014.1 hPa East 17.7 km/h 24.1 km/h 39 % 0.0 mm 394 W/m2
19:05 32.4 °C 16.7 °C 1014.1 hPa ESE 16.1 km/h 24.1 km/h 39 % 0.0 mm 388 W/m2
19:10 32.6 °C 16.8 °C 1014.1 hPa ENE 3.2 km/h 17.7 km/h 39 % 0.0 mm 392 W/m2
19:15 32.6 °C 17.2 °C 1013.8 hPa ENE 8.0 km/h 17.7 km/h 40 % 0.0 mm 378 W/m2
19:20 32.4 °C 17.1 °C 1013.8 hPa ENE 22.5 km/h 22.5 km/h 40 % 0.0 mm 376 W/m2
19:25 32.4 °C 17.1 °C 1013.8 hPa East 11.3 km/h 24.1 km/h 40 % 0.0 mm 367 W/m2
19:30 32.2 °C 16.9 °C 1013.8 hPa ESE 11.3 km/h 24.1 km/h 40 % 0.0 mm 299 W/m2
19:35 31.9 °C 17.1 °C 1013.8 hPa ENE 6.4 km/h 24.1 km/h 41 % 0.0 mm 325 W/m2
19:40 32.0 °C 17.1 °C 1013.8 hPa NE 3.2 km/h 22.5 km/h 41 % 0.0 mm 320 W/m2
19:45 32.1 °C 17.2 °C 1013.8 hPa ENE 6.4 km/h 20.9 km/h 41 % 0.0 mm 304 W/m2
19:50 32.0 °C 17.1 °C 1013.8 hPa ENE 4.8 km/h 19.3 km/h 41 % 0.0 mm 269 W/m2
19:55 31.9 °C 17.4 °C 1013.8 hPa East 12.9 km/h 19.3 km/h 42 % 0.0 mm 232 W/m2
20:00 31.7 °C 17.2 °C 1013.8 hPa East 17.7 km/h 22.5 km/h 42 % 0.0 mm 211 W/m2
20:05 31.6 °C 17.1 °C 1013.8 hPa ENE 12.9 km/h 22.5 km/h 42 % 0.0 mm 192 W/m2
20:10 31.4 °C 17.3 °C 1013.8 hPa ENE 8.0 km/h 20.9 km/h 43 % 0.0 mm 178 W/m2
20:15 31.3 °C 17.6 °C 1013.8 hPa ENE 11.3 km/h 20.9 km/h 44 % 0.0 mm 169 W/m2
20:20 31.1 °C 17.4 °C 1013.8 hPa NE 14.5 km/h 25.7 km/h 44 % 0.0 mm 156 W/m2
20:25 31.0 °C 17.7 °C 1013.8 hPa NE 3.2 km/h 25.7 km/h 45 % 0.0 mm 151 W/m2
20:30 31.0 °C 17.7 °C 1013.8 hPa East 12.9 km/h 20.9 km/h 45 % 0.0 mm 135 W/m2
20:35 30.8 °C 17.5 °C 1013.8 hPa NE 6.4 km/h 20.9 km/h 45 % 0.0 mm 116 W/m2
20:40 30.7 °C 17.4 °C 1013.8 hPa East 14.5 km/h 24.1 km/h 45 % 0.0 mm 72 W/m2
20:45 30.4 °C 17.2 °C 1013.8 hPa East 11.3 km/h 24.1 km/h 45 % 0.0 mm 60 W/m2
20:50 30.2 °C 17.3 °C 1013.8 hPa ENE 4.8 km/h 22.5 km/h 46 % 0.0 mm 51 W/m2
20:55 30.1 °C 17.2 °C 1013.8 hPa East 8.0 km/h 19.3 km/h 46 % 0.0 mm 44 W/m2
21:00 29.8 °C 17.3 °C 1013.8 hPa ENE 8.0 km/h 19.3 km/h 47 % 0.0 mm 39 W/m2
21:05 29.8 °C 17.6 °C 1013.8 hPa ENE 1.6 km/h 19.3 km/h 48 % 0.0 mm 33 W/m2
21:10 29.5 °C 17.7 °C 1013.8 hPa North 4.8 km/h 19.3 km/h 49 % 0.0 mm 30 W/m2
21:15 29.4 °C 17.6 °C 1013.8 hPa ENE 12.9 km/h 20.9 km/h 49 % 0.0 mm 26 W/m2
21:20 29.4 °C 17.2 °C 1013.8 hPa East 4.8 km/h 20.9 km/h 48 % 0.0 mm 23 W/m2
21:25 29.3 °C 17.5 °C 1013.8 hPa ENE 14.5 km/h 20.9 km/h 49 % 0.0 mm 21 W/m2
21:30 29.2 °C 17.7 °C 1013.8 hPa East 16.1 km/h 20.9 km/h 50 % 0.0 mm 19 W/m2
21:35 29.1 °C 17.6 °C 1013.8 hPa East 6.4 km/h 20.9 km/h 50 % 0.0 mm 19 W/m2
21:40 29.1 °C 17.6 °C 1013.8 hPa ENE 11.3 km/h 20.9 km/h 50 % 0.0 mm 16 W/m2
21:45 28.9 °C 17.5 °C 1013.8 hPa East 4.8 km/h 20.9 km/h 50 % 0.0 mm 14 W/m2
21:50 28.8 °C 17.7 °C 1013.4 hPa ENE 4.8 km/h 16.1 km/h 51 % 0.0 mm 11 W/m2
21:55 28.8 °C 17.6 °C 1013.4 hPa ENE 4.8 km/h 19.3 km/h 51 % 0.0 mm 7 W/m2
22:00 28.7 °C 17.9 °C 1013.8 hPa East 1.6 km/h 19.3 km/h 52 % 0.0 mm 0 W/m2
22:05 28.6 °C 17.7 °C 1013.8 hPa NE 3.2 km/h 16.1 km/h 52 % 0.0 mm 0 W/m2
22:10 28.2 °C 17.7 °C 1013.8 hPa ENE 6.4 km/h 11.3 km/h 53 % 0.0 mm 0 W/m2
22:15 28.0 °C 17.5 °C 1013.8 hPa Calm   11.3 km/h 53 % 0.0 mm 0 W/m2
22:20 28.0 °C 17.8 °C 1013.8 hPa ENE 12.9 km/h 14.5 km/h 54 % 0.0 mm 0 W/m2
22:25 28.0 °C 17.5 °C 1013.4 hPa ENE 14.5 km/h 16.1 km/h 53 % 0.0 mm 0 W/m2
22:30 27.9 °C 17.8 °C 1013.4 hPa East 12.9 km/h 16.1 km/h 54 % 0.0 mm 0 W/m2
22:35 27.8 °C 17.7 °C 1013.8 hPa NE 3.2 km/h 17.7 km/h 54 % 0.0 mm 0 W/m2
22:40 27.7 °C 17.8 °C 1013.8 hPa North 1.6 km/h 17.7 km/h 55 % 0.0 mm 0 W/m2
22:45 27.2 °C 18.0 °C 1013.8 hPa NNE 6.4 km/h 12.9 km/h 57 % 0.0 mm 0 W/m2
22:50 27.2 °C 17.9 °C 1013.8 hPa ENE 11.3 km/h 14.5 km/h 57 % 0.0 mm 0 W/m2
22:55 27.2 °C 17.7 °C 1013.8 hPa East 3.2 km/h 14.5 km/h 56 % 0.0 mm 0 W/m2
23:00 27.2 °C 17.7 °C 1013.8 hPa ENE 6.4 km/h 11.3 km/h 56 % 0.0 mm 0 W/m2
23:05 27.3 °C 17.7 °C 1013.8 hPa ENE 8.0 km/h 14.5 km/h 56 % 0.0 mm 0 W/m2
23:10 27.2 °C 17.7 °C 1013.8 hPa Calm   16.1 km/h 56 % 0.0 mm 0 W/m2
23:15 27.1 °C 17.9 °C 1013.8 hPa East 9.7 km/h 16.1 km/h 57 % 0.0 mm 0 W/m2
23:20 27.0 °C 17.8 °C 1013.8 hPa NE 6.4 km/h 16.1 km/h 57 % 0.0 mm 0 W/m2
23:25 26.8 °C 17.9 °C 1013.8 hPa ENE 12.9 km/h 16.1 km/h 58 % 0.0 mm 0 W/m2
23:30 26.7 °C 17.7 °C 1013.8 hPa Calm   14.5 km/h 58 % 0.0 mm 0 W/m2
23:35 26.5 °C 17.6 °C 1013.8 hPa North 8.0 km/h 11.3 km/h 58 % 0.0 mm 0 W/m2
23:40 26.3 °C 17.6 °C 1013.8 hPa Calm   9.7 km/h 59 % 0.0 mm 0 W/m2
23:45 26.2 °C 17.6 °C 1013.8 hPa NNE 4.8 km/h 11.3 km/h 59 % 0.0 mm 0 W/m2
23:50 26.1 °C 17.7 °C 1013.8 hPa NE 3.2 km/h 11.3 km/h 60 % 0.0 mm 0 W/m2
23:55 25.7 °C 17.6 °C 1013.8 hPa North 3.2 km/h 11.3 km/h 61 % 0.0 mm 0 W/m2
Avec l'autorisation de Weather Underground - 1.75 mb